Buckhannon, WV

5:41 PM EDT on May 22, 2017 (GMT -0400)
Buckhannon

Weather History for KW22 - December, 2012

Change the Weather History Date:

Saturday, December 22, 2012

  Actual Average (KCKB) Record (KCKB)
Temperature  
Mean Temperature 26 °F -  
Max Temperature 30 °F 41 °F 72 °F (2013)
Min Temperature 21 °F 22 °F -12 °F (1942)
Degree Days  
Heating Degree Days 40    
Moisture  
Dew Point 23 °F    
Average Humidity 83    
Maximum Humidity 100    
Minimum Humidity 69    
Precipitation  
Precipitation 1.64 in - - ()
Sea Level Pressure  
Sea Level Pressure 30.03 in    
Wind  
Wind Speed 13 mph (WSW)    
Max Wind Speed 20 mph    
Max Gust Speed 32 mph    
Visibility 7 miles    
Events Rain , Snow    
Averages and records for this station are not official NWS values.
T = Trace of Precipitation, MM = Missing Value Source: NWS Daily Summary

Daily Weather History Graph

Daily Weather History Graph

Search for Another Location

Airport or City:

Trip Planner

Search our weather history database for the weather conditions in past years. The results will help you decide how hot, cold, wet, or windy it might be!

Date:

Astronomy

Dec. 22, 2012 Rise Set
Actual Time 7:37 AM EST 5:02 PM EST
Civil Twilight 7:07 AM EST 5:32 PM EST
Nautical Twilight 6:33 AM EST 6:06 PM EST
Astronomical Twilight 6:00 AM EST 6:39 PM EST
Moon 1:18 PM EST 2:22 AM EST
Length of Visible Light 10h 25m
Length of Day
9h 25m
Waxing Gibbous, 73% of the Moon is Illuminated
Dec 22
Waxing Gibbous
Dec 28
Full
Jan 4
Last Quarter
Jan 11
New
Jan 18
First Quarter

Hourly Weather History & Observations

Time (EST) Temp. Windchill Dew Point Humidity Pressure Visibility Wind Dir Wind Speed Gust Speed Precip Events Conditions
12:15 AM 28.4 °F 16.2 °F 26.6 °F 93% 29.79 in 2.5 mi WSW 17.3 mph 27.6 mph 0.13 in Snow Light Snow
12:35 AM 28.4 °F 17.0 °F 26.6 °F 93% 29.80 in 2.0 mi WSW 15.0 mph 21.9 mph 0.32 in Snow Light Snow
12:55 AM 28.4 °F 16.2 °F 26.6 °F 93% 29.80 in 2.5 mi WSW 17.3 mph 24.2 mph 0.47 in Snow Light Snow
1:15 AM 28.4 °F 17.0 °F 28.4 °F 100% 29.81 in 2.0 mi West 15.0 mph 25.3 mph 0.16 in Snow Light Snow
1:35 AM 28.4 °F 17.5 °F 28.4 °F 100% 29.82 in 2.5 mi WSW 13.8 mph 21.9 mph 0.37 in Snow Light Snow
1:55 AM 28.4 °F 16.6 °F 28.4 °F 100% 29.82 in 2.5 mi West 16.1 mph 25.3 mph 0.53 in Snow Light Snow
2:15 AM 28.4 °F 16.6 °F 28.4 °F 100% 29.83 in 6.0 mi West 16.1 mph 25.3 mph N/A Snow Light Snow
2:35 AM 30.2 °F 18.9 °F 28.4 °F 93% 29.84 in 3.0 mi West 16.1 mph 24.2 mph 0.06 in Snow Light Snow
2:55 AM 30.2 °F 18.5 °F 28.4 °F 93% 29.86 in 2.0 mi West 17.3 mph 32.2 mph 0.27 in Snow Light Snow
3:15 AM 30.2 °F 18.1 °F 28.4 °F 93% 29.87 in 5.0 mi West 18.4 mph 26.5 mph 0.01 in Snow Light Snow
3:35 AM 30.2 °F 19.3 °F 26.6 °F 86% 29.88 in 8.0 mi West 15.0 mph 23.0 mph 0.02 in Snow Light Snow
3:55 AM 30.2 °F 17.8 °F 26.6 °F 86% 29.88 in 8.0 mi West 19.6 mph 26.5 mph 0.03 in Snow Light Snow
4:15 AM 30.2 °F 18.5 °F 26.6 °F 86% 29.89 in 8.0 mi West 17.3 mph 25.3 mph N/A   Overcast
4:35 AM 30.2 °F 20.2 °F 26.6 °F 86% 29.89 in 10.0 mi West 12.7 mph 19.6 mph 0.01 in   Overcast
4:55 AM 30.2 °F 19.8 °F 26.6 °F 86% 29.90 in 10.0 mi West 13.8 mph 20.7 mph 0.01 in Snow Light Snow
5:15 AM 30.2 °F 19.8 °F 26.6 °F 86% 29.91 in 10.0 mi West 13.8 mph 24.2 mph N/A Rain Light Freezing Rain
5:35 AM 30.2 °F 19.3 °F 24.8 °F 80% 29.92 in 10.0 mi West 15.0 mph 21.9 mph N/A Rain Light Freezing Rain
5:55 AM 30.2 °F 20.8 °F 24.8 °F 80% 29.94 in 10.0 mi WNW 11.5 mph 17.3 mph N/A Snow Light Snow
6:15 AM 30.2 °F 19.3 °F 24.8 °F 80% 29.95 in 10.0 mi West 15.0 mph 23.0 mph N/A Rain Light Freezing Rain
6:35 AM 30.2 °F 19.3 °F 23.0 °F 75% 29.96 in 10.0 mi West 15.0 mph 19.6 mph N/A   Mostly Cloudy
7:15 AM 30.2 °F 19.8 °F 23.0 °F 75% 29.99 in 10.0 mi West 13.8 mph 18.4 mph N/A   Overcast
7:35 AM 30.2 °F 21.3 °F 23.0 °F 75% 30.00 in 10.0 mi West 10.4 mph - N/A   Overcast
7:55 AM 30.2 °F 21.3 °F 21.2 °F 69% 30.01 in 10.0 mi West 10.4 mph 17.3 mph N/A   Overcast
8:15 AM 30.2 °F 19.3 °F 23.0 °F 75% 30.02 in 10.0 mi WSW 15.0 mph 18.4 mph N/A   Overcast
8:35 AM 30.2 °F 20.8 °F 23.0 °F 75% 30.03 in 5.0 mi WSW 11.5 mph 17.3 mph N/A Snow Light Snow
8:55 AM 28.4 °F 17.5 °F 24.8 °F 86% 30.04 in 1.5 mi WSW 13.8 mph - 0.06 in Snow Light Snow
9:15 AM 28.4 °F 19.7 °F 24.8 °F 86% 30.06 in 2.0 mi WSW 9.2 mph - 0.04 in Snow Light Snow
9:35 AM 28.4 °F 18.0 °F 23.0 °F 80% 30.07 in 2.0 mi WSW 12.7 mph 16.1 mph 0.10 in Snow Light Snow
9:55 AM 28.4 °F 17.5 °F 23.0 °F 80% 30.08 in 2.0 mi WSW 13.8 mph 20.7 mph 0.18 in Snow Light Snow
10:15 AM 28.4 °F 16.6 °F 23.0 °F 80% 30.09 in 5.0 mi WSW 16.1 mph 19.6 mph N/A Snow Light Snow
10:35 AM 28.4 °F 19.1 °F 23.0 °F 80% 30.10 in 4.0 mi WSW 10.4 mph 18.4 mph 0.01 in Snow Light Snow
10:55 AM 28.4 °F 18.0 °F 24.8 °F 86% 30.10 in 2.5 mi WSW 12.7 mph 21.9 mph 0.03 in Snow Light Snow
11:15 AM 28.4 °F 18.0 °F 24.8 °F 86% 30.10 in 2.0 mi SW 12.7 mph 17.3 mph 0.01 in Snow Light Snow
11:35 AM 28.4 °F 18.0 °F 26.6 °F 93% 30.10 in 2.0 mi SW 12.7 mph 21.9 mph 0.02 in Snow Light Snow
11:55 AM 28.4 °F 17.0 °F 26.6 °F 93% 30.09 in 2.5 mi WSW 15.0 mph 21.9 mph 0.04 in Snow Light Snow
12:15 PM 28.4 °F 17.5 °F 24.8 °F 86% 30.09 in 3.0 mi WSW 13.8 mph 18.4 mph N/A Snow Light Snow
12:35 PM 28.4 °F 17.0 °F 24.8 °F 86% 30.09 in 5.0 mi WSW 15.0 mph 20.7 mph N/A   Overcast
12:55 PM 28.4 °F 19.7 °F 23.0 °F 80% 30.08 in 4.0 mi SW 9.2 mph 18.4 mph 0.01 in Snow Light Snow
1:15 PM 28.4 °F 18.5 °F 23.0 °F 80% 30.08 in 4.0 mi WSW 11.5 mph - N/A Snow Light Snow
1:35 PM 28.4 °F 17.5 °F 23.0 °F 80% 30.08 in 4.0 mi WSW 13.8 mph 20.7 mph N/A Snow Light Snow
1:55 PM 28.4 °F 17.0 °F 23.0 °F 80% 30.08 in 5.0 mi WSW 15.0 mph 19.6 mph 0.01 in Snow Light Snow
2:15 PM 28.4 °F 18.0 °F 23.0 °F 80% 30.08 in 8.0 mi West 12.7 mph 18.4 mph N/A Snow Light Snow
2:35 PM 28.4 °F 16.6 °F 23.0 °F 80% 30.09 in 9.0 mi WSW 16.1 mph - N/A Snow Light Snow
2:55 PM 28.4 °F 18.5 °F 23.0 °F 80% 30.09 in 10.0 mi WSW 11.5 mph 18.4 mph N/A   Overcast
3:15 PM 28.4 °F 18.0 °F 21.2 °F 74% 30.09 in 10.0 mi West 12.7 mph - N/A   Overcast
3:35 PM 28.4 °F 19.1 °F 21.2 °F 74% 30.10 in 10.0 mi West 10.4 mph 16.1 mph N/A   Overcast
3:55 PM 28.4 °F 20.4 °F 21.2 °F 74% 30.10 in 10.0 mi SW 8.1 mph - N/A   Overcast
4:15 PM 28.4 °F 18.5 °F 23.0 °F 80% 30.10 in 10.0 mi WSW 11.5 mph - N/A   Overcast
4:35 PM 28.4 °F 19.7 °F 21.2 °F 74% 30.10 in 10.0 mi SW 9.2 mph - N/A   Overcast
4:55 PM 28.4 °F 20.4 °F 21.2 °F 74% 30.11 in 10.0 mi SW 8.1 mph - N/A   Overcast
5:15 PM 28.4 °F 18.5 °F 21.2 °F 74% 30.11 in 10.0 mi WSW 11.5 mph 17.3 mph N/A   Overcast
5:35 PM 28.4 °F 18.0 °F 21.2 °F 74% 30.11 in 10.0 mi SW 12.7 mph 17.3 mph N/A   Overcast
5:55 PM 28.4 °F 18.5 °F 21.2 °F 74% 30.12 in 10.0 mi SW 11.5 mph - N/A   Overcast
6:15 PM 28.4 °F 17.5 °F 21.2 °F 74% 30.11 in 10.0 mi SW 13.8 mph 18.4 mph N/A   Overcast
6:35 PM 28.4 °F 19.7 °F 21.2 °F 74% 30.12 in 10.0 mi SW 9.2 mph - N/A   Overcast
6:55 PM 28.4 °F 18.5 °F 19.4 °F 69% 30.11 in 10.0 mi SW 11.5 mph - N/A   Overcast
7:35 PM 26.6 °F 18.2 °F 19.4 °F 74% 30.11 in 10.0 mi SW 8.1 mph - N/A   Overcast
7:55 PM 26.6 °F 19.1 °F 19.4 °F 74% 30.11 in 10.0 mi SW 6.9 mph - N/A   Mostly Cloudy
8:15 PM 26.6 °F 18.2 °F 19.4 °F 74% 30.11 in 10.0 mi SW 8.1 mph - N/A   Partly Cloudy
8:35 PM 26.6 °F 21.2 °F 19.4 °F 74% 30.11 in 10.0 mi SSW 4.6 mph - N/A   Clear
8:55 PM 24.8 °F 19.1 °F 19.4 °F 80% 30.11 in 10.0 mi SSW 4.6 mph - N/A   Clear
9:15 PM 24.8 °F - 19.4 °F 80% 30.12 in 10.0 mi Calm Calm - N/A   Clear
9:35 PM 23.0 °F - 19.4 °F 86% 30.12 in 10.0 mi Calm Calm - N/A   Clear
9:55 PM 23.0 °F - 19.4 °F 86% 30.12 in 10.0 mi Calm Calm - N/A   Clear
10:15 PM 23.0 °F 18.4 °F 19.4 °F 86% 30.12 in 10.0 mi South 3.5 mph - N/A   Clear
10:35 PM 23.0 °F 17.0 °F 19.4 °F 86% 30.12 in 10.0 mi SSW 4.6 mph - N/A   Clear
10:55 PM 21.2 °F 13.6 °F 19.4 °F 93% 30.11 in 10.0 mi South 5.8 mph - N/A   Clear
11:15 PM 23.0 °F 17.0 °F 19.4 °F 86% 30.10 in 10.0 mi South 4.6 mph - N/A   Clear
11:35 PM 21.2 °F 14.9 °F 19.4 °F 93% 30.10 in 10.0 mi South 4.6 mph - N/A   Clear
11:55 PM 21.2 °F 13.6 °F 19.4 °F 93% 30.09 in 10.0 mi South 5.8 mph - N/A   Clear